Вернуться в каталог

H-2A R/B

АктивенHEO
NORAD 29657·ROCKET BODY·🇯🇵 Japan

Запущен Dec 18, 2006 с Tanegashima Space Center

Loading…

Ближайшие Пролёты (ближайшие 24 часа)

TLE

СвежийSource: Space-Track

Эпоха: Sep 14, 2026, 20:37 UTC

1 29657U 06059B   26257.85921885  .00023253  00000-0  10099-2 0  9993
2 29657  28.5934 182.5537 4352180 321.7213  14.2162  6.83258213326202

Отслеживайте H-2A R/B в реальном времени с AllMySat

Download on the App Store